2021-061C (49005 NORAD) Tracking and Keplerian Element Data

This shows tracking and keplerian element data for the satellite.

Feedback or suggestion? Click here.




ElementValue
Catalog49005
Name2021-061C
Epoch Orbit1173
Epoch Day261.85517626
Epoch Year2021
RAAN327.816
Inclination97.533
Eccentricity0.0012967
Argument of Perigee24.143
Mean Anonmoly87.043
Mean Motion15.09827281
Decay Rate4.21E-06
L11 49005U 21061C 21261.85517626 .00000421 00000-0 29911-4 0 9993
L22 49005 97.5330 327.8160 0012967 24.1430 87.0430 15.09827281 11730

Live tracking and technical data element details for 2021-061C (NORAD 49005). 2021-061C can be tracked NOW for your location showing map with azimuth and elevation plus other details from your city location.

Track the satellite on the map from your city or location and see movement details for azimuth, elevation, latitude, longitude, range, height, and movement on the map or in text.







IsCatalogInMostPopularTable: catalog: 49005, numindb: 44
Update: records affected: 1



GetName: 49005 2021-061C

Hit Count: updated at: Fri, 24 Sep 2021 17:47:24 GMT